Home > Weather > Telfs > Past weeks

Flag for Austria Past Weather in Telfs, Tyrol, Austria — Yesterday and Last 2 Weeks

Now
57 °F

Passing clouds.


Feels Like: 57 °F
Forecast: 57 / 74 °F
Wind: 1 mph from North

Location: Innsbruck-Flughafen

Current Time: Jun 29, 2016 at 4:03:01 AM

Latest Report: Jun 29, 2016 at 3:20 AM


Visibility: N/A

Pressure: 30.04 "Hg (27.87 "Hg at 630m altitude)

Humidity: 82%

Dew Point: 52 °F

Location of TelfsLocation

Past Weather in Telfs — Graph

°F

Telfs Temperature Yesterday

Maximum temperature yesterday: 79 °F (at 4:20 PM)
Minimum temperature yesterday: 54 °F (at 6:20 AM)
Average temperature yesterday: 66 °F

High & Low Weather Summary for the Past Weeks

 TemperatureHumidityPressure
High93 °F (Jun 24, 2:50 PM)100% (Jun 14, 7:20 PM)30.33 "Hg (Jun 14, 7:20 PM)
Low50 °F (Jun 17, 5:50 AM)20% (Jun 24, 2:50 PM)29.50 "Hg (Jun 16, 5:50 PM)
Average64 °F74%30.02 "Hg
* Reported Jun 14 2:20 AM — Jun 29 2:20 AM, Telfs, Weather by CustomWeather, © 2016

Note: Actual official high and low records may vary slightly from our data, if they occured in-between our weather recording intervals... More about our weather records

Advertising

Telfs Weather History for the Previous 24 Hours

Scroll right to see more
 ConditionsComfort  
Time TempWeatherWind HumidityBarometerVisibility
2:20 AM
Wed, Jun 29
59 °FCool.3 mph77%30.07 "HgN/A
1:50 AM59 °FCool.6 mph77%30.07 "HgN/A
1:20 AM59 °FCool.1 mph82%30.04 "HgN/A
12:50 AM59 °FCool.3 mph77%30.04 "HgN/A
12:20 AM61 °FCool.1 mph77%30.04 "HgN/A
11:50 PM
Tue, Jun 28
63 °FMild.2 mph68%30.04 "HgN/A
11:20 PM63 °FMild.1 mph73%30.04 "HgN/A
10:50 PM63 °FClear.2 mph73%30.04 "Hg10 mi
10:20 PM64 °FClear.2 mph68%30.04 "Hg10 mi
9:50 PM66 °FSunny.2 mph64%30.04 "Hg10 mi
9:20 PM68 °FPassing clouds.3 mph60%30.01 "HgN/A
8:50 PM70 °FPassing clouds.3 mph57%30.01 "HgN/A
8:20 PM70 °FPassing clouds.5 mph60%30.01 "HgN/A
7:50 PM73 °FPassing clouds.9 mph47%30.01 "HgN/A
7:20 PM75 °FScattered clouds.8 mph44%29.98 "HgN/A
6:50 PM77 °FScattered clouds.12 mph42%30.01 "HgN/A
6:20 PM77 °FScattered clouds.13 mph39%29.98 "HgN/A
5:50 PM79 °FScattered clouds.10 mph39%29.98 "HgN/A
5:20 PM79 °FPassing clouds.9 mph39%30.01 "HgN/A
4:50 PM79 °FPassing clouds.8 mph34%30.01 "HgN/A
4:20 PM79 °FPassing clouds.9 mph32%30.01 "HgN/A
3:50 PM77 °FPassing clouds.9 mph36%30.01 "HgN/A
3:20 PM77 °FPassing clouds.7 mph36%30.04 "HgN/A
2:50 PM77 °FPassing clouds.6 mph34%30.04 "HgN/A
2:20 PM77 °FPassing clouds.6 mph39%30.04 "HgN/A
1:50 PM77 °FPassing clouds.5 mph39%30.07 "HgN/A
1:20 PM75 °FPassing clouds.5 mph39%30.07 "HgN/A
12:50 PM73 °FPassing clouds.2 mph38%30.09 "HgN/A
12:20 PM73 °FScattered clouds.3 mph38%30.09 "HgN/A
11:50 AM72 °FPassing clouds.2 mph50%30.09 "HgN/A
11:20 AM70 °FPassing clouds.2 mph46%30.12 "HgN/A
10:50 AM66 °FPassing clouds.2 mph56%30.12 "HgN/A
10:20 AM66 °FPassing clouds.3 mph56%30.15 "HgN/A
9:50 AM64 °FPassing clouds.5 mph60%30.15 "HgN/A
9:20 AM63 °FPassing clouds.7 mph68%30.15 "HgN/A
8:50 AM61 °FPassing clouds.6 mph72%30.15 "HgN/A
8:20 AM59 °FPassing clouds.6 mph77%30.18 "HgN/A
7:50 AM57 °FPassing clouds.6 mph82%30.18 "HgN/A
7:20 AM55 °FPassing clouds.5 mph88%30.18 "HgN/A
6:50 AM55 °FScattered clouds.5 mph88%30.18 "HgN/A
6:20 AM54 °FScattered clouds.3 mph94%30.18 "HgN/A
5:50 AM55 °FPassing clouds.3 mph88%30.18 "HgN/A
5:20 AM55 °FPassing clouds.3 mph88%30.18 "HgN/A
4:50 AM55 °FOvercast.1 mph88%30.18 "Hg6 mi
4:20 AM55 °FOvercast.2 mph94%30.18 "HgN/A
Weather by CustomWeather, © 2016

See weather overviewHow to use our weather pages